Montreal Mirabel, Ontario

6:10 AM EDT on March 25, 2017 (GMT -0400)
Montreal International (Mirabel)

Weather History for CYMX - October, 2012

Change the Weather History Date:

Friday, October 26, 2012

  Actual Average Record
Temperature  
Mean Temperature 55 °F -  
Max Temperature 68 °F 47 °F 68 °F (2012)
Min Temperature 42 °F 31 °F 19 °F (1997)
Degree Days  
Heating Degree Days 10    
Growing Degree Days 5 (Base 50)    
Moisture  
Dew Point 46 °F    
Average Humidity 77    
Maximum Humidity 100    
Minimum Humidity 60    
Precipitation  
Precipitation 0.00 in - - ()
Sea Level Pressure  
Sea Level Pressure 30.11 in    
Wind  
Wind Speed 4 mph ()    
Max Wind Speed 7 mph    
Max Gust Speed -    
Visibility 12.7 miles    
Events      
Averages and records for this station are not official NWS values.
T = Trace of Precipitation, MM = Missing Value Source: Averaged Metar Reports

Daily Weather History Graph

Daily Weather History Graph

Search for Another Location

Airport or City:

Trip Planner

Search our weather history database for the weather conditions in past years. The results will help you decide how hot, cold, wet, or windy it might be!

Date:

Astronomy

Oct. 26, 2012 Rise Set
Actual Time 7:28 AM EDT 5:51 PM EDT
Civil Twilight 6:57 AM EDT 6:21 PM EDT
Nautical Twilight 6:22 AM EDT 6:56 PM EDT
Astronomical Twilight 5:48 AM EDT 7:30 PM EDT
Moon 4:11 PM EDT (10/26) 4:14 AM EDT (10/26)
Length of Visible Light 11h 24m
Length of Day
10h 22m
Waxing Gibbous, 91% of the Moon is Illuminated
Oct 26
Waxing Gibbous
Oct 29
Full
Nov 6
Last Quarter
Nov 13
New
Nov 20
First Quarter

Hourly Weather History & Observations

Time (EDT) Temp. Windchill Dew Point Humidity Pressure Visibility Wind Dir Wind Speed Gust Speed Precip Events Conditions
12:00 AM 44.6 °F 43.1 °F 35.6 °F 71% 30.12 in 25.0 mi NE 3.5 mph - N/A   Clear
1:00 AM 44.6 °F 42.2 °F 37.4 °F 76% 30.12 in 25.0 mi NE 4.6 mph - N/A   Clear
2:00 AM 44.6 °F 43.1 °F 37.4 °F 76% 30.13 in 25.0 mi NE 3.5 mph - N/A   Clear
3:00 AM 44.6 °F - 37.4 °F 76% 30.13 in 25.0 mi NE 2.3 mph - N/A   Clear
4:00 AM 42.8 °F 39.3 °F 37.4 °F 81% 30.13 in 25.0 mi ENE 5.8 mph - N/A   Clear
5:00 AM 42.8 °F 41.1 °F 37.4 °F 81% 30.12 in 25.0 mi NNE 3.5 mph - N/A   Clear
6:00 AM 42.8 °F 40.1 °F 37.4 °F 81% 30.13 in 20.0 mi NE 4.6 mph - N/A   Partly Cloudy
7:00 AM 44.6 °F 41.4 °F 39.2 °F 81% 30.13 in 20.0 mi NE 5.8 mph - N/A   Overcast
8:00 AM 46.4 °F 45.2 °F 41.0 °F 81% 30.14 in 20.0 mi NE 3.5 mph - N/A   Overcast
9:00 AM 48.2 °F - 42.8 °F 82% 30.15 in 10.0 mi ENE 5.8 mph - N/A   Overcast
10:00 AM 51.8 °F - 46.4 °F 82% 30.16 in 10.0 mi NE 5.8 mph - N/A   Overcast
10:46 AM 53.6 °F - 48.2 °F 82% 30.15 in 12.0 mi NE 4.6 mph - N/A   Scattered Clouds
11:00 AM 55.4 °F - 48.2 °F 77% 30.14 in 12.0 mi NE 5.8 mph - N/A   Scattered Clouds
12:00 PM 59.0 °F - 50.0 °F 72% 30.13 in 10.0 mi NE 3.5 mph - N/A   Partly Cloudy
1:00 PM 62.6 °F - 51.8 °F 68% 30.10 in 10.0 mi East 3.5 mph - N/A   Partly Cloudy
2:00 PM 66.2 °F - 53.6 °F 64% 30.09 in 10.0 mi East 5.8 mph - N/A   Clear
3:00 PM 68.0 °F - 53.6 °F 60% 30.09 in 10.0 mi NW 3.5 mph - N/A   Partly Cloudy
4:00 PM 68.0 °F - 55.4 °F 64% 30.07 in 10.0 mi East 4.6 mph - N/A   Partly Cloudy
5:00 PM 68.0 °F - 53.6 °F 60% 30.06 in 10.0 mi SSE 3.5 mph - N/A   Partly Cloudy
6:00 PM 62.6 °F - 53.6 °F 72% 30.07 in 10.0 mi SSE 6.9 mph - N/A   Partly Cloudy
7:00 PM 60.8 °F - 53.6 °F 77% 30.07 in 25.0 mi SE 6.9 mph - N/A   Partly Cloudy
8:00 PM 55.4 °F - 51.8 °F 88% 30.09 in 25.0 mi ENE 2.3 mph - N/A   Scattered Clouds
9:00 PM 55.4 °F - 51.8 °F 88% 30.09 in 25.0 mi Variable 2.3 mph - N/A   Scattered Clouds
10:00 PM 53.6 °F - 51.8 °F 94% 30.09 in 20.0 mi NNE 3.5 mph - N/A   Scattered Clouds
11:00 PM 51.8 °F - 51.8 °F 100% 30.10 in 10.0 mi NNE 4.6 mph - N/A   Partly Cloudy